STARLINK-35633, 66162

Orbit data source: Space-Track

STARLINK-35633, 66162 is a payload satellite owned by SpaceX/Seattle (US) in LEO that was launched on Sat, 25 Oct 2025 UTC via an FALCON 9 launch vehicle from the Air Force Eastern Test Range (AFETR). Payload-class satellites include a variety of spacecraft equipped with specific instruments for various scientific and technological missions. These include communications satellites like Starlink; space stations such as the ISS; scientific satellites like the Hubble; Earth observation satellites from companies like Planet Labs, Umbra, and HawkEye 360; GPS; miniature CubeSats for education and research; and military/defense satellites.

Loading next visibility...
Identifier
66162, 2025-240S
Orbit
LEO
Country
Flag of USUS
Related business
Manufacturer
SpaceX/Seattle
Mission
Operational Commercial Communications
Bus & Motor
STARLINK V2MO, Unknown motor
Mass
575 kg wet, ~530 kg dry
Launch date (UTC)
2025-10-25 (8 months ago)
Launch vehicle
FALCON 9
Launch site
Air Force Eastern Test Range (AFETR)
Object type
Payload
Rocket body
Debris
Shape & HBR
Box + 2 Pan, 17.7 m
Radar Cross Section
36.964 m², Large (>1 m²)

Expand to show TLE details & history
Last TLE update: 1 day ago

TLE from 1 day ago
0 STARLINK-35633
1 66162U 25240S   26170.80136368  .00013857  00000-0  47897-3 0  9997
2 66162  53.1595 308.4020 0001008  81.8265 278.2850 15.30209626 37621
Epoch: 2026-06-19T19:13Z
TLE epoch observation values (Epoch: 2026-06-19T19:13:57.821Z)
Latitude
-0.00005°
Longitude
111.88591°
Altitude
475.987 km
Speed
7.629 km/s
True Right ascension
20h 33m 36s
True Declination
0° 00' 00"
Sunlit
Object was in full shadow at epoch
Visualization orbit readout
Latitude
Unknown
Longitude
Unknown
Altitude
Unknown
Speed
Unknown
Apparent Right ascension
Unknown
Apparent Declination
Unknown
Sunlit
N/A
Visualization observer readout
Local Sidereal Time
07:17:12
Azimuth
Unknown
Elevation
Unknown
Doppler factor
Unknown
Orbital elements
Apogee altitude
476.134 km
Perigee altitude
474.752 km
Semi-major axis
6,853.58 km
Eccentricity
0.0001
Inclination
53.1595°
RAAN
308.402°
Arg. of periapsis
81.8265°
True anomaly
278.27357°
Mean anomaly
278.285°
Eccentric anomaly
278.27928°
Mean motion
3.82531 °/min
Orbital period
94.11 mins
BSTAR
0.00047897
Loading maneuver chart data...
Computing Atmospheric mass density...
Loading historical data...
Loading historical data...
Loading historical data...
Loading historical data...
Loading historical data...
Loading historical data...
Loading historical data...

Documentation

Showing up to 5 results
|